[[{"header":{"parameterUnit":"m.s-1","parameterCategory":2,"la1":30.2991,"la2":30.254,"lo1":-89.0895,"lo2":-89.0444,"dy":0.0017,"dx":0.0017,"nx":28,"ny":28,"refTime":"2024-02-27T03:00:00:Z","depth":"0","parameterNumber":2,"parameterNumberName":"U-component_of_CURRENTS"},"data":[0,0,0,0,0,0,0,0,0,0,0,0,0,0,0,0,0,0,0,0,0,0,0,0,0,0,0,0,0,0,0,0,0,0,0,0,0,0,0,0,0,0,0,0,0,0,0,0,0,0,0,0,0,0,0,0,0,0,0.2525,0.2525,0,0.2575,0.2576,0.2576,0.2587,0.2587,0.2587,0.2587,0.2624,0.2625,0.2626,0,0,0,0,0,0,0,0,0,0,0,0,0,0.2436,0.2437,0.2525,0.2525,0.2526,0.2575,0.2576,0.2576,0.2587,0.2587,0.2587,0.2587,0.2624,0.2625,0.2627,0,0,0,0,0,0,0,0,0,0,0,0,0,0.2477,0.2438,0.2524,0.2539,0.2541,0.2575,0.2576,0.2576,0.2587,0.2587,0.2587,0.2586,0.2623,0.2625,0.2627,0.2643,0,0,0.2632,0.2633,0,0,0,0,0,0,0,0,0.2475,0.248,0.2536,0.2538,0.2541,0.2576,0.2558,0.2599,0.2587,0.2568,0.2587,0.2586,0.2609,0.2611,0.2619,0.2645,0.2646,0.2632,0.2633,0.2634,0.2635,0,0,0,0,0,0,0,0.2472,0.2478,0.2543,0.2537,0.254,0.2543,0.2548,0.2566,0.2587,0.2569,0.2571,0.258,0.2609,0.2617,0.262,0.2647,0.2632,0.2634,0.2635,0.2635,0.2708,0.2709,0,0,0,0,0,0,0.2471,0.2476,0.2541,0.2544,0.2509,0.2545,0.2551,0.2564,0.2587,0.2591,0.258,0.258,0.2614,0.2618,0.2621,0.2661,0.2634,0.2636,0.2637,0.2707,0.2708,0.2709,0,0,0,0,0,0,0.2468,0.2476,0.2539,0.2512,0.2521,0.2547,0.2561,0.2565,0.2573,0.2596,0.2599,0.2585,0.2614,0.2619,0.2646,0.2662,0.2636,0.2638,0.2706,0.2707,0.2709,0.2728,0,0,0,0,0,0,0.2466,0.2475,0.2484,0.2512,0.2522,0.2561,0.2562,0.2566,0.258,0.2581,0.2601,0.2605,0.2614,0.2644,0.2648,0.2663,0.2639,0.2705,0.2707,0.2708,0.2726,0.273,0.2733,0,0,0,0,0,0.2462,0.248,0.2484,0.2493,0.2534,0.2561,0.2567,0.2582,0.2581,0.2588,0.2606,0.2604,0.2657,0.2646,0.2651,0.2667,0.2704,0.2706,0.2708,0.2725,0.2729,0.2733,0,0,0,0,0,0,0.245,0.2484,0.2489,0.2517,0.2537,0.2564,0.2573,0.2583,0.2603,0.2602,0.2617,0.2623,0.2655,0.2658,0.2645,0.2693,0.2679,0.2683,0.269,0.2695,0.2698,0.2697,0.2641,0,0,0,0,0,0.2451,0.247,0.2499,0.252,0.2528,0.2548,0.2561,0.2572,0.2594,0.2602,0.2622,0.2642,0.2668,0.2677,0.2701,0.2724,0.2749,0.2737,0.274,0.2743,0.2746,0.2803,0.2811,0.2716,0.2716,0.2716,0,0,0.245,0.2473,0.2483,0.2518,0.253,0.2546,0.2554,0.2574,0.2593,0.2603,0.2635,0.2658,0.2678,0.2711,0.2725,0.2713,0.2786,0.2745,0.2748,0.2749,0.2806,0.2815,0.2823,0.2717,0.2717,0.2716,0,0,0.2454,0.2477,0.2488,0.2504,0.2529,0.2547,0.2552,0.2582,0.2599,0.2631,0.265,0.2682,0.2713,0.2739,0.2753,0.2787,0.2806,0.2791,0.2802,0.2857,0.2866,0.2873,0.2926,0.2939,0.2787,0.2787,0.2787,0,0.2444,0.2473,0.2495,0.2507,0.252,0.2545,0.2555,0.2581,0.2621,0.2644,0.2641,0.2715,0.2728,0.2779,0.2789,0.2795,0.2829,0.2784,0.2862,0.287,0.2878,0.293,0.2943,0.2788,0.2788,0.2788,0.2788,0,0.2456,0.2475,0.2483,0.2507,0.2523,0.2539,0.2572,0.2599,0.2621,0.2654,0.2712,0.2743,0.2788,0.2797,0.28,0.2862,0.2872,0.2865,0.2852,0.2889,0.2941,0.2955,0.279,0.2789,0.2789,0.2789,0,0,0.2426,0.2479,0.2478,0.2488,0.2524,0.2536,0.2573,0.2618,0.2643,0.2696,0.2736,0.2792,0.282,0.2838,0.2859,0.2896,0.2977,0.29,0.2902,0.2952,0.3107,0.3111,0.3126,0.2988,0.299,0.2992,0.3126,0,0.242,0.2446,0.2476,0.2493,0.2505,0.2541,0.2572,0.2617,0.2658,0.2707,0.2765,0.2812,0.2834,0.2853,0.2905,0.2961,0.3012,0.2942,0.3064,0.3068,0.3067,0.3142,0.3045,0.3156,0.3139,0.3141,0.3143,0,0.2406,0.2432,0.2448,0.2489,0.2495,0.251,0.2556,0.259,0.267,0.2706,0.2779,0.2825,0.2913,0.2904,0.3053,0.3011,0.3064,0.3101,0.3107,0.3112,0.3097,0.3115,0.3181,0.3032,0.3164,0.3162,0.3161,0,0.2357,0.2403,0.2417,0.2428,0.2482,0.2494,0.2523,0.2588,0.2617,0.2708,0.274,0.286,0.2915,0.3014,0.3118,0.3091,0.3266,0.3237,0.3296,0.3297,0.3239,0.323,0.3172,0.3335,0.3335,0.3335,0.3334,0,0.2328,0.2327,0.2396,0.2396,0.241,0.2459,0.2476,0.2527,0.2595,0.2637,0.2739,0.28,0.2943,0.306,0.3142,0.3285,0.3305,0.3323,0.3341,0.3243,0.3234,0.312,0.3064,0.334,0.3339,0.3338,0.3337,0,0.2239,0.2292,0.2303,0.2367,0.238,0.2383,0.2428,0.2448,0.2531,0.2586,0.2618,0.2775,0.2948,0.3093,0.3259,0.3317,0.3349,0.3474,0.3353,0.3355,0.325,0.32,0.3144,0.306,0.3562,0.3563,0.3564,0,0.2187,0.2194,0.2254,0.2261,0.2279,0.2299,0.2312,0.2397,0.2428,0.2574,0.2601,0.2783,0.2906,0.3177,0.3337,0.3517,0.3384,0.3494,0.3418,0.3251,0.321,0.3089,0.3011,0.3354,0.3353,0.3352,0.3351,0,0.2088,0.2116,0.2132,0.2157,0.2172,0.2189,0.2224,0.2239,0.2354,0.2426,0.255,0.2658,0.2949,0.3101,0.3344,0.3447,0.3309,0.3484,0.3339,0.3076,0.2913,0.2837,0.3255,0.3345,0.3345,0.3346,0.3346,0.3347,0.1998,0.1995,0.2034,0.2037,0.2058,0.2069,0.2059,0.2129,0.2182,0.2284,0.2445,0.2572,0.2812,0.3158,0.3253,0.3305,0.3294,0.3211,0.318,0.3083,0.2942,0.3352,0.344,0.3441,0.3442,0.3443,0.3444,0,0.1882,0.1898,0.1911,0.1925,0.1905,0.1959,0.1989,0.1983,0.2025,0.217,0.2285,0.2476,0.2642,0.2842,0.304,0.2985,0.2885,0.2891,0.266,0.2613,0.3004,0.293,0.2875,0.2875,0.2876,0.2876,0.2876,0.2876,0.1826,0.1797,0.1815,0.1763,0.1773,0.174,0.1743,0.1772,0.185,0.195,0.205,0.2195,0.2444,0.2635,0.2663,0.2641,0.2424,0.2362,0.2322,0.2543,0.2567,0.259,0.2501,0.2358,0.2358,0.1827,0.1823,0.1819]},{"header":{"parameterUnit":"m.s-1","parameterCategory":2,"la1":30.2991,"la2":30.254,"lo1":-89.0895,"lo2":-89.0444,"dy":0.0017,"dx":0.0017,"nx":28,"ny":28,"refTime":"2024-02-27T03:00:00:Z","depth":"0","parameterNumber":3,"parameterNumberName":"V-component_of_CURRENTS"},"data":[0,0,0,0,0,0,0,0,0,0,0,0,0,0,0,0,0,0,0,0,0,0,0,0,0,0,0,0,0,0,0,0,0,0,0,0,0,0,0,0,0,0,0,0,0,0,0,0,0,0,0,0,0,0,0,0,0,0,0.0335,0.0335,0,0.0342,0.0342,0.0342,0.0314,0.0313,0.0312,0.0312,0.0289,0.0289,0.0289,0,0,0,0,0,0,0,0,0,0,0,0,0,0.0307,0.0307,0.0335,0.0335,0.0335,0.0342,0.0342,0.0342,0.0314,0.0313,0.0312,0.0311,0.0289,0.0289,0.0289,0,0,0,0,0,0,0,0,0,0,0,0,0,0.0316,0.0307,0.0335,0.0323,0.0322,0.0342,0.0342,0.0342,0.0314,0.0313,0.0312,0.0311,0.0289,0.0289,0.0289,0.031,0,0,0.0289,0.0289,0,0,0,0,0,0,0,0,0.0315,0.0316,0.0325,0.0324,0.0323,0.0327,0.0324,0.0331,0.0314,0.0315,0.0312,0.031,0.0301,0.03,0.0302,0.0309,0.0308,0.0289,0.0289,0.0289,0.0289,0,0,0,0,0,0,0,0.0315,0.0316,0.0336,0.0325,0.0324,0.0322,0.0321,0.0325,0.0312,0.0315,0.0314,0.0317,0.03,0.0302,0.0301,0.0308,0.0289,0.0289,0.0289,0.0289,0.0286,0.0285,0,0,0,0,0,0,0.0318,0.0316,0.0336,0.0337,0.0318,0.0323,0.0323,0.0326,0.0313,0.031,0.0318,0.0316,0.0302,0.0301,0.03,0.0305,0.0289,0.0289,0.0289,0.0286,0.0286,0.0285,0,0,0,0,0,0,0.0317,0.0319,0.0336,0.0327,0.0329,0.0325,0.0328,0.0327,0.0322,0.0316,0.0312,0.0315,0.0301,0.03,0.0297,0.0304,0.0289,0.0289,0.0286,0.0286,0.0285,0.0327,0,0,0,0,0,0,0.0316,0.0319,0.0322,0.0328,0.033,0.0347,0.033,0.0327,0.0328,0.0324,0.0312,0.0309,0.03,0.0297,0.0297,0.0304,0.0289,0.0286,0.0286,0.0286,0.0326,0.0328,0.033,0,0,0,0,0,0.0315,0.0324,0.0322,0.0325,0.0335,0.0347,0.0348,0.034,0.0329,0.0331,0.0319,0.0309,0.0295,0.0298,0.0298,0.0304,0.0286,0.0286,0.0286,0.0325,0.0328,0.033,0,0,0,0,0,0,0.0319,0.0323,0.032,0.0331,0.0339,0.0343,0.0346,0.0342,0.0336,0.0329,0.0316,0.0313,0.031,0.0301,0.0304,0.0299,0.0286,0.0286,0.0316,0.0318,0.032,0.0338,0.0289,0,0,0,0,0,0.0322,0.0325,0.0333,0.0342,0.0345,0.0345,0.0349,0.0346,0.0343,0.0339,0.0332,0.032,0.0312,0.0309,0.0301,0.0308,0.0294,0.0308,0.031,0.0313,0.0325,0.0303,0.0304,0.0284,0.0284,0.0284,0,0,0.0331,0.033,0.0335,0.0342,0.0344,0.0359,0.0344,0.0352,0.0365,0.0339,0.0348,0.033,0.0314,0.0316,0.0313,0.0308,0.0309,0.0312,0.0314,0.0326,0.0302,0.0305,0.0306,0.0284,0.0284,0.0284,0,0,0.0352,0.0344,0.0356,0.0361,0.0366,0.0367,0.037,0.0376,0.0376,0.0387,0.0364,0.0352,0.0349,0.0337,0.033,0.0341,0.032,0.0332,0.0363,0.0341,0.0343,0.0345,0.0325,0.0325,0.0335,0.0335,0.0335,0,0.0361,0.0376,0.0364,0.0377,0.0385,0.0372,0.0395,0.0398,0.0402,0.0408,0.0394,0.038,0.0362,0.0362,0.0361,0.0349,0.0332,0.0357,0.0346,0.0347,0.0348,0.0327,0.0326,0.0337,0.0337,0.0336,0.0336,0,0.0395,0.0404,0.041,0.042,0.0428,0.0441,0.0446,0.0451,0.0447,0.0451,0.0451,0.0427,0.0419,0.0405,0.039,0.0385,0.0369,0.0351,0.0343,0.0352,0.033,0.0328,0.034,0.0339,0.0338,0.0338,0,0,0.042,0.0433,0.0435,0.0447,0.045,0.0464,0.048,0.0497,0.0513,0.0505,0.0524,0.05,0.0482,0.0473,0.0444,0.0424,0.0408,0.0394,0.0392,0.0384,0.036,0.0334,0.0329,0.0386,0.0386,0.0386,0.0342,0,0.045,0.0481,0.0481,0.0515,0.0531,0.0524,0.0546,0.0556,0.0557,0.0569,0.0543,0.0543,0.051,0.0501,0.0479,0.0432,0.0406,0.0422,0.0346,0.0344,0.0326,0.0327,0.0322,0.0281,0.034,0.0339,0.0339,0,0.0486,0.0499,0.0536,0.0562,0.057,0.0589,0.0612,0.0633,0.0639,0.064,0.0632,0.0608,0.0588,0.0548,0.0486,0.0498,0.0434,0.039,0.0387,0.035,0.0314,0.0281,0.0275,0.013,0.0336,0.0336,0.0336,0,0.0507,0.0539,0.0568,0.0576,0.0603,0.062,0.0638,0.0653,0.0677,0.0681,0.0691,0.0663,0.0651,0.0581,0.0501,0.0488,0.0426,0.0393,0.0307,0.0305,0.0281,0.0276,0.0135,0.0333,0.0333,0.0333,0.0333,0,0.0534,0.0559,0.058,0.0595,0.0637,0.065,0.0693,0.0705,0.0728,0.0762,0.073,0.0746,0.0656,0.0612,0.0525,0.0426,0.0444,0.0319,0.0293,0.0294,0.0291,0.0147,0.0089,0.0332,0.0332,0.0332,0.0333,0,0.0554,0.0566,0.0601,0.0633,0.0647,0.0678,0.0727,0.0757,0.0777,0.0818,0.082,0.0807,0.0757,0.0663,0.0553,0.0459,0.0286,0.0311,0.0322,0.0298,0.0073,0.002,-0.0117,-0.0158,0.0207,0.0206,0.0206,0,0.0568,0.0586,0.0625,0.0647,0.0663,0.0708,0.0741,0.0775,0.0809,0.0861,0.0883,0.0853,0.0852,0.0698,0.0527,0.0372,0.0257,0.0238,0.0204,0.0062,-0.0017,-0.0058,-0.0085,0.0186,0.0185,0.0184,0.0184,0,0.0592,0.0601,0.0627,0.0671,0.0707,0.0757,0.0807,0.0842,0.0891,0.0939,0.0997,0.1004,0.0863,0.0726,0.0505,0.0378,0.0147,0.0216,0.0066,-0.0046,-0.0094,-0.0146,0.0213,0.0177,0.0178,0.0178,0.0179,0.0179,0.0607,0.0629,0.0657,0.0701,0.0743,0.0804,0.0854,0.0918,0.0997,0.1096,0.109,0.1147,0.0906,0.0618,0.0424,0.0049,0.008,-0.0068,-0.012,-0.0149,-0.0196,0.0151,0.0087,0.0087,0.0087,0.0088,0.0088,0,0.0629,0.0651,0.0688,0.074,0.0787,0.0811,0.0896,0.0961,0.1067,0.1182,0.1253,0.1172,0.0864,0.0538,0.0046,-0.023,-0.0317,-0.0381,-0.045,-0.0459,-0.0163,-0.0173,-0.029,-0.029,-0.0289,-0.0289,-0.0289,-0.0289,0.064,0.0677,0.0694,0.0766,0.0806,0.0883,0.0938,0.1051,0.1154,0.131,0.1373,0.1398,0.1139,0.0217,-0.0421,-0.0568,-0.0729,-0.077,-0.0842,-0.0665,-0.064,-0.0617,-0.0643,-0.0857,-0.0857,-0.1109,-0.1112,-0.1114]}],[{"header":{"parameterUnit":"m.s-1","parameterCategory":2,"la1":30.2991,"la2":30.254,"lo1":-89.0895,"lo2":-89.0444,"dy":0.0017,"dx":0.0017,"nx":28,"ny":28,"refTime":"2024-02-27T03:00:00:Z","depth":"2","parameterNumber":2,"parameterNumberName":"U-component_of_CURRENTS"},"data":[0,0,0,0,0,0,0,0,0,0,0,0,0,0,0,0,0,0,0,0,0,0,0,0,0,0,0,0,0,0,0,0,0,0,0,0,0,0,0,0,0,0,0,0,0,0,0,0,0,0,0,0,0,0,0,0,0,0,0.1596,0.1596,0,0.1541,0.1539,0.1538,0.1543,0.1545,0.1546,0.1548,0.1475,0.1471,0.1468,0,0,0,0,0,0,0,0,0,0,0,0,0,0.1634,0.1632,0.1596,0.1596,0.1597,0.1541,0.1539,0.1537,0.1542,0.1545,0.1547,0.1549,0.1476,0.1472,0.1467,0,0,0,0,0,0,0,0,0,0,0,0,0,0.159,0.1632,0.1596,0.1602,0.1603,0.1542,0.1539,0.1537,0.1542,0.1545,0.1548,0.155,0.1478,0.1472,0.1467,0.1372,0,0,0.1449,0.1447,0,0,0,0,0,0,0,0,0.1593,0.1587,0.16,0.1601,0.1602,0.1563,0.1526,0.1485,0.1541,0.1552,0.1548,0.1552,0.1508,0.15,0.1466,0.1368,0.1365,0.1449,0.1445,0.1443,0.1441,0,0,0,0,0,0,0,0.1596,0.1589,0.1561,0.1601,0.1602,0.1584,0.158,0.1517,0.1504,0.1551,0.1554,0.1567,0.1508,0.1471,0.1465,0.1364,0.1449,0.1444,0.144,0.1438,0.1508,0.1513,0,0,0,0,0,0,0.1627,0.1592,0.1564,0.1561,0.1619,0.1582,0.1577,0.1562,0.1505,0.1503,0.1565,0.1568,0.148,0.1471,0.1462,0.157,0.1443,0.1437,0.1434,0.1503,0.1509,0.1515,0,0,0,0,0,0,0.1628,0.1624,0.1566,0.1587,0.158,0.158,0.1562,0.156,0.1593,0.1518,0.1514,0.161,0.1482,0.147,0.152,0.1559,0.1435,0.143,0.1497,0.1505,0.1512,0.1643,0,0,0,0,0,0,0.1628,0.1623,0.1652,0.1588,0.1581,0.1584,0.156,0.1557,0.1598,0.1603,0.1554,0.1546,0.1483,0.153,0.1515,0.1549,0.1425,0.149,0.15,0.151,0.1632,0.1654,0.1674,0,0,0,0,0,0.1629,0.1651,0.1652,0.1652,0.1609,0.1587,0.158,0.1581,0.1598,0.1619,0.1634,0.1551,0.1583,0.1529,0.151,0.1544,0.1485,0.1497,0.1509,0.1623,0.165,0.1673,0,0,0,0,0,0,0.1669,0.1653,0.1653,0.1667,0.1658,0.1594,0.1625,0.1619,0.1636,0.1657,0.1598,0.1592,0.1643,0.1602,0.1545,0.1609,0.1526,0.1535,0.162,0.1644,0.1665,0.1638,0.142,0,0,0,0,0,0.1694,0.1714,0.1685,0.1699,0.1708,0.1677,0.1682,0.1671,0.1667,0.1678,0.1669,0.1669,0.1659,0.1668,0.1643,0.1666,0.1637,0.1691,0.1712,0.1729,0.1706,0.1736,0.1755,0.1554,0.1554,0.1554,0,0,0.1705,0.1709,0.1716,0.1714,0.1705,0.172,0.1686,0.1701,0.1723,0.1663,0.1734,0.1726,0.1686,0.1723,0.1743,0.1704,0.1788,0.1745,0.1758,0.1724,0.175,0.1769,0.1785,0.1562,0.1561,0.1559,0,0,0.1744,0.1752,0.179,0.179,0.1807,0.1785,0.1813,0.1798,0.1816,0.1857,0.1842,0.189,0.1872,0.1866,0.185,0.1977,0.189,0.1985,0.2059,0.2091,0.2106,0.2118,0.2155,0.2169,0.2003,0.2003,0.2003,0,0.1792,0.1794,0.1798,0.1833,0.1844,0.1833,0.186,0.1862,0.1878,0.1898,0.1913,0.1939,0.1928,0.1951,0.2019,0.2012,0.202,0.1953,0.2111,0.2123,0.2132,0.2166,0.218,0.2011,0.201,0.2009,0.2009,0,0.1832,0.1855,0.1877,0.1919,0.1938,0.1948,0.1957,0.1995,0.2025,0.2025,0.2082,0.2081,0.21,0.2121,0.2101,0.2176,0.2158,0.2122,0.2028,0.2159,0.2189,0.2201,0.2022,0.2019,0.2017,0.2015,0,0,0.1884,0.1907,0.1916,0.1928,0.1973,0.1971,0.2039,0.2065,0.2099,0.2145,0.2186,0.2226,0.2239,0.2228,0.2223,0.226,0.2377,0.2239,0.2238,0.2241,0.2461,0.236,0.2362,0.2367,0.2369,0.2371,0.2468,0,0.1923,0.1964,0.1981,0.2021,0.2035,0.2053,0.2102,0.2134,0.2172,0.2222,0.2233,0.2272,0.2274,0.2296,0.2343,0.2346,0.2408,0.2354,0.2361,0.2361,0.2225,0.2371,0.2177,0.2238,0.2479,0.2481,0.2482,0,0.1953,0.1972,0.2007,0.2031,0.2045,0.2081,0.2133,0.2177,0.2241,0.2274,0.2327,0.2337,0.2408,0.2388,0.2471,0.2439,0.2477,0.2478,0.2481,0.233,0.228,0.2141,0.2249,0.2501,0.2499,0.2498,0.2497,0,0.1937,0.1983,0.2,0.2009,0.2054,0.2085,0.2126,0.2197,0.2227,0.2317,0.2348,0.2418,0.2453,0.2502,0.2523,0.2525,0.2577,0.258,0.2523,0.2516,0.2317,0.2288,0.2651,0.2651,0.2651,0.2651,0.2651,0,0.1934,0.1942,0.1986,0.1991,0.2025,0.2072,0.2123,0.2182,0.2249,0.2294,0.238,0.2401,0.2485,0.2513,0.2545,0.2553,0.261,0.2547,0.2536,0.2366,0.2342,0.2521,0.2504,0.2655,0.2654,0.2653,0.2652,0,0.1876,0.1908,0.1929,0.1988,0.2015,0.2038,0.2113,0.2136,0.2226,0.2287,0.232,0.2413,0.2485,0.252,0.259,0.257,0.2582,0.2567,0.2359,0.2322,0.2514,0.2504,0.2572,0.257,0.2567,0.2565,0.2564,0,0.1837,0.1844,0.1922,0.1936,0.1961,0.2003,0.2034,0.2126,0.2151,0.2272,0.2284,0.2384,0.2429,0.247,0.2431,0.2457,0.2547,0.2305,0.2276,0.2524,0.2508,0.2501,0.2495,0.2101,0.2095,0.2091,0.2087,0,0.1769,0.1809,0.1823,0.1867,0.1903,0.1927,0.198,0.1984,0.2092,0.2139,0.2192,0.224,0.2303,0.2226,0.2242,0.223,0.2285,0.222,0.2533,0.2131,0.2081,0.2064,0.2073,0.2049,0.2053,0.2056,0.2058,0.2059,0.1716,0.1715,0.1757,0.1777,0.1817,0.1827,0.1832,0.1877,0.1903,0.1977,0.2045,0.2061,0.2038,0.1965,0.1921,0.1912,0.2072,0.2029,0.2042,0.206,0.1968,0.1914,0.1836,0.1838,0.184,0.1842,0.1844,0,0.163,0.1644,0.1663,0.1689,0.1685,0.1755,0.1775,0.175,0.176,0.1821,0.1874,0.1641,0.1617,0.1656,0.1567,0.1568,0.1553,0.1559,0.1536,0.1573,0.1607,0.1493,0.1235,0.1233,0.1232,0.123,0,0,0.1575,0.1566,0.1577,0.1551,0.1578,0.1561,0.1565,0.157,0.1568,0.1498,0.148,0.1564,0.1559,0.1329,0.1316,0.1287,0.1423,0.1246,0.1729,0.1737,0.1769,0.1867,0.1731,0,0,0,0,0]},{"header":{"parameterUnit":"m.s-1","parameterCategory":2,"la1":30.2991,"la2":30.254,"lo1":-89.0895,"lo2":-89.0444,"dy":0.0017,"dx":0.0017,"nx":28,"ny":28,"refTime":"2024-02-27T03:00:00:Z","depth":"2","parameterNumber":3,"parameterNumberName":"V-component_of_CURRENTS"},"data":[0,0,0,0,0,0,0,0,0,0,0,0,0,0,0,0,0,0,0,0,0,0,0,0,0,0,0,0,0,0,0,0,0,0,0,0,0,0,0,0,0,0,0,0,0,0,0,0,0,0,0,0,0,0,0,0,0,0,-0.0454,-0.0455,0,-0.05,-0.05,-0.05,-0.0477,-0.0476,-0.0475,-0.0474,-0.0508,-0.051,-0.0512,0,0,0,0,0,0,0,0,0,0,0,0,0,-0.0385,-0.0386,-0.0454,-0.0455,-0.0456,-0.05,-0.05,-0.05,-0.0477,-0.0476,-0.0475,-0.0474,-0.0508,-0.051,-0.0512,0,0,0,0,0,0,0,0,0,0,0,0,0,-0.0418,-0.0386,-0.0454,-0.0452,-0.0453,-0.05,-0.05,-0.0501,-0.0477,-0.0476,-0.0475,-0.0474,-0.0507,-0.051,-0.0512,-0.0554,0,0,-0.052,-0.0521,0,0,0,0,0,0,0,0,-0.0416,-0.042,-0.0452,-0.0453,-0.0453,-0.0485,-0.0489,-0.0519,-0.0478,-0.0464,-0.0474,-0.0473,-0.0503,-0.0506,-0.0512,-0.0555,-0.0557,-0.052,-0.0522,-0.0523,-0.0524,0,0,0,0,0,0,0,-0.0414,-0.0418,-0.0468,-0.0453,-0.0454,-0.0463,-0.0465,-0.0494,-0.0487,-0.0465,-0.0465,-0.0476,-0.0502,-0.051,-0.0513,-0.0557,-0.052,-0.0522,-0.0524,-0.0525,-0.0553,-0.0552,0,0,0,0,0,0,-0.0415,-0.0416,-0.0467,-0.047,-0.0435,-0.0466,-0.0468,-0.0473,-0.0487,-0.0489,-0.0477,-0.0475,-0.0506,-0.051,-0.0514,-0.0485,-0.0523,-0.0525,-0.0527,-0.0554,-0.0553,-0.0552,0,0,0,0,0,0,-0.0414,-0.0419,-0.0465,-0.0447,-0.0454,-0.0468,-0.0474,-0.0475,-0.0471,-0.0497,-0.0498,-0.0472,-0.0505,-0.051,-0.051,-0.0489,-0.0526,-0.0529,-0.0555,-0.0554,-0.0552,-0.0479,0,0,0,0,0,0,-0.0411,-0.0418,-0.0424,-0.0447,-0.0455,-0.0472,-0.0476,-0.0477,-0.0483,-0.0479,-0.0493,-0.0495,-0.0504,-0.0506,-0.0513,-0.0493,-0.0531,-0.0556,-0.0554,-0.0553,-0.0482,-0.0475,-0.0469,0,0,0,0,0,-0.0408,-0.0392,-0.0424,-0.043,-0.0462,-0.0472,-0.0476,-0.048,-0.0483,-0.0473,-0.0476,-0.0494,-0.0501,-0.0508,-0.0516,-0.0497,-0.0557,-0.0555,-0.0553,-0.0485,-0.0477,-0.047,0,0,0,0,0,0,-0.0378,-0.0391,-0.0424,-0.042,-0.0448,-0.0469,-0.0454,-0.0479,-0.0477,-0.0468,-0.0491,-0.0493,-0.0496,-0.0506,-0.0513,-0.05,-0.053,-0.053,-0.0476,-0.0469,-0.0462,-0.0452,-0.0533,0,0,0,0,0,-0.0379,-0.0358,-0.0402,-0.0402,-0.0406,-0.044,-0.0447,-0.046,-0.0466,-0.0464,-0.0468,-0.0477,-0.0499,-0.0489,-0.0513,-0.0502,-0.0534,-0.0493,-0.0486,-0.0481,-0.0477,-0.0504,-0.05,-0.0546,-0.0546,-0.0546,0,0,-0.0381,-0.0376,-0.0376,-0.0393,-0.0405,-0.0405,-0.0436,-0.0435,-0.044,-0.0471,-0.0446,-0.047,-0.0499,-0.0487,-0.0486,-0.0484,-0.0485,-0.0478,-0.0473,-0.0473,-0.0502,-0.0498,-0.0494,-0.0545,-0.0545,-0.0545,0,0,-0.0348,-0.0355,-0.0331,-0.0335,-0.0352,-0.037,-0.0371,-0.0389,-0.0392,-0.0401,-0.0421,-0.042,-0.0442,-0.044,-0.0452,-0.0427,-0.0471,-0.0434,-0.0367,-0.0393,-0.039,-0.0387,-0.0425,-0.0427,-0.0404,-0.0404,-0.0404,0,-0.0344,-0.0333,-0.0331,-0.0304,-0.0301,-0.0349,-0.0337,-0.0355,-0.0372,-0.037,-0.0379,-0.0412,-0.0421,-0.0423,-0.0393,-0.0412,-0.044,-0.0393,-0.0385,-0.0383,-0.0381,-0.0421,-0.0424,-0.04,-0.0401,-0.0401,-0.0401,0,-0.03,-0.0297,-0.0269,-0.0251,-0.0244,-0.0236,-0.0263,-0.0261,-0.0279,-0.0302,-0.0317,-0.034,-0.0346,-0.0351,-0.0358,-0.0345,-0.0376,-0.0395,-0.0403,-0.0372,-0.0416,-0.042,-0.0395,-0.0396,-0.0397,-0.0398,0,0,-0.0259,-0.0247,-0.0235,-0.0226,-0.0214,-0.02,-0.0193,-0.0206,-0.0194,-0.0229,-0.0222,-0.0246,-0.0259,-0.0272,-0.0291,-0.0293,-0.0293,-0.0315,-0.0318,-0.0351,-0.036,-0.0373,-0.038,-0.0309,-0.0309,-0.0309,-0.0396,0,-0.023,-0.0184,-0.0179,-0.0141,-0.0123,-0.0135,-0.012,-0.0129,-0.0143,-0.014,-0.0194,-0.0194,-0.0234,-0.0219,-0.0237,-0.0291,-0.0299,-0.0268,-0.0388,-0.0392,-0.0405,-0.0383,-0.0321,-0.0392,-0.0401,-0.0401,-0.0402,0,-0.0184,-0.0154,-0.0119,-0.0089,-0.0077,-0.0055,-0.0015,-0.0011,-0.0029,-0.0036,-0.006,-0.0105,-0.0126,-0.0158,-0.0251,-0.0231,-0.0278,-0.0326,-0.0331,-0.0371,-0.0411,-0.0425,-0.04,-0.0409,-0.0408,-0.0408,-0.0407,0,-0.0136,-0.0105,-0.0074,-0.0059,-0.0034,-0.0005,0.0017,0.0029,0.0041,0.0045,0.0054,-0.0016,-0.0034,-0.0126,-0.024,-0.0228,-0.0365,-0.0363,-0.0433,-0.0436,-0.0421,-0.0422,-0.0417,-0.0417,-0.0417,-0.0417,-0.0417,0,-0.0095,-0.0058,-0.0049,-0.0018,0.0043,0.0053,0.0111,0.0132,0.0135,0.0163,0.0121,0.0104,-0.002,-0.0126,-0.0231,-0.0365,-0.0366,-0.0424,-0.0454,-0.0394,-0.0391,-0.0436,-0.0437,-0.042,-0.0419,-0.0419,-0.0418,0,-0.0042,-0.0049,-0.0002,0.0035,0.0066,0.012,0.0179,0.0206,0.0223,0.0256,0.0264,0.0193,0.0086,-0.0081,-0.0232,-0.0335,-0.0468,-0.0512,-0.0445,-0.0464,-0.052,-0.0516,-0.0571,-0.0572,-0.0573,-0.0573,-0.0574,0,-0.0012,0.0007,0.0065,0.01,0.0126,0.0194,0.024,0.0264,0.0286,0.0298,0.0305,0.0228,0.019,-0.007,-0.0261,-0.0456,-0.0495,-0.0531,-0.048,-0.0509,-0.0533,-0.0528,-0.0523,-0.0438,-0.0438,-0.0438,-0.0437,0,0.0051,0.0059,0.0097,0.017,0.0224,0.0278,0.0338,0.0355,0.0375,0.0413,0.0408,0.039,0.0195,0.0025,-0.0231,-0.0361,-0.0494,-0.0525,-0.0581,-0.0405,-0.039,-0.0412,-0.041,-0.0433,-0.0434,-0.0434,-0.0434,-0.0434,0.0107,0.0135,0.0172,0.0241,0.0301,0.035,0.0403,0.0445,0.0496,0.0583,0.0512,0.0534,0.03,0.0027,-0.0208,-0.0441,-0.044,-0.0503,-0.0502,-0.0501,-0.0466,-0.0453,-0.0503,-0.0503,-0.0504,-0.0505,-0.0505,0,0.0176,0.0198,0.025,0.0314,0.0377,0.041,0.0469,0.0519,0.0609,0.0681,0.0742,0.0549,0.0387,0.0116,-0.0195,-0.0395,-0.039,-0.0464,-0.0408,-0.041,-0.0413,-0.0371,-0.0384,-0.0384,-0.0385,-0.0385,0,0,0.0204,0.0259,0.0271,0.037,0.0432,0.052,0.0562,0.066,0.0717,0.08,0.083,0.0836,0.0463,0.0252,-0.0029,-0.0196,-0.025,-0.0225,-0.03,-0.0201,-0.0201,-0.0415,-0.0352,0,0,0,0,0]}],[{"header":{"parameterUnit":"m.s-1","parameterCategory":2,"la1":30.2991,"la2":30.254,"lo1":-89.0895,"lo2":-89.0444,"dy":0.0017,"dx":0.0017,"nx":28,"ny":28,"refTime":"2024-02-27T03:00:00:Z","depth":"4","parameterNumber":2,"parameterNumberName":"U-component_of_CURRENTS"},"data":[0,0,0,0,0,0,0,0,0,0,0,0,0,0,0,0,0,0,0,0,0,0,0,0,0,0,0,0,0,0,0,0,0,0,0,0,0,0,0,0,0,0,0,0,0,0,0,0,0,0,0,0,0,0,0,0,0,0,0.0345,0.0345,0,0.0301,0.03,0.0299,0.0269,0.0268,0.0268,0.0268,0.026,0.026,0.026,0,0,0,0,0,0,0,0,0,0,0,0,0,0.0374,0.0374,0.0345,0.0345,0.0345,0.0301,0.03,0.0299,0.0269,0.0268,0.0268,0.0268,0.026,0.026,0.026,0,0,0,0,0,0,0,0,0,0,0,0,0,0.0347,0.0374,0.0345,0.0326,0.0323,0.0301,0.03,0.0299,0.0269,0.0268,0.0268,0.0268,0.0261,0.026,0.026,0.026,0,0,0.0259,0.0259,0,0,0,0,0,0,0,0,0.0349,0.0346,0.0329,0.0327,0.0325,0.0292,0.0307,0.0288,0.0269,0.0287,0.0268,0.0268,0.0276,0.0274,0.0262,0.0259,0.0259,0.0259,0.0259,0.0259,0.0259,0,0,0,0,0,0,0,0.035,0.0347,0.0326,0.0329,0.0326,0.0309,0.0305,0.0303,0.0281,0.0286,0.0284,0.0282,0.0275,0.0263,0.0262,0.0259,0.0259,0.0259,0.0259,0.0259,0.0213,0.0212,0,0,0,0,0,0,0.0362,0.0349,0.0327,0.0324,0.0339,0.0309,0.0304,0.0301,0.0281,0.0278,0.0282,0.0281,0.0263,0.0263,0.0262,0.0264,0.0259,0.0259,0.0259,0.0215,0.0213,0.0212,0,0,0,0,0,0,0.0363,0.036,0.0329,0.0338,0.0333,0.0309,0.0305,0.03,0.0288,0.0278,0.0275,0.0276,0.0263,0.0262,0.0242,0.0264,0.0259,0.0258,0.0216,0.0214,0.0213,0.0266,0,0,0,0,0,0,0.0363,0.0361,0.0364,0.0338,0.0333,0.0323,0.0305,0.0299,0.0288,0.0286,0.0272,0.0271,0.0263,0.0243,0.0242,0.0263,0.0258,0.0217,0.0215,0.0213,0.0266,0.0267,0.0268,0,0,0,0,0,0.0365,0.0368,0.0364,0.0362,0.0337,0.0324,0.0319,0.03,0.0288,0.0288,0.026,0.0271,0.023,0.0241,0.0241,0.0263,0.0218,0.0216,0.0213,0.0265,0.0267,0.0267,0,0,0,0,0,0,0.038,0.0365,0.036,0.0358,0.0347,0.032,0.0319,0.0302,0.0279,0.0275,0.0259,0.0255,0.0244,0.0234,0.0247,0.0237,0.0226,0.0224,0.0266,0.0267,0.0268,0.0303,0.0258,0,0,0,0,0,0.0387,0.0385,0.037,0.0368,0.0367,0.0343,0.0335,0.032,0.0297,0.0287,0.0271,0.025,0.0234,0.0235,0.0215,0.0217,0.023,0.0226,0.0227,0.0228,0.0252,0.0261,0.0266,0.0204,0.0204,0.0204,0,0,0.0389,0.0383,0.038,0.0371,0.0362,0.0362,0.0338,0.0329,0.032,0.0291,0.0273,0.0252,0.0229,0.0222,0.0218,0.0221,0.0251,0.0225,0.0227,0.0251,0.0259,0.0266,0.0272,0.0203,0.0203,0.0203,0,0,0.04,0.0393,0.04,0.0398,0.0391,0.0375,0.0374,0.0348,0.0331,0.0309,0.0282,0.0267,0.0244,0.0234,0.0226,0.0218,0.0248,0.0215,0.0266,0.0274,0.0281,0.0286,0.0322,0.0331,0.0226,0.0226,0.0226,0,0.0403,0.0413,0.04,0.0413,0.0413,0.0384,0.0393,0.037,0.0335,0.0328,0.031,0.0272,0.0251,0.0254,0.0253,0.0227,0.0249,0.0272,0.0281,0.0286,0.0292,0.0327,0.0336,0.0228,0.0228,0.0228,0.0228,0,0.0421,0.0434,0.044,0.0446,0.0443,0.0444,0.0422,0.0407,0.0381,0.0363,0.0348,0.0312,0.0304,0.0287,0.0275,0.0302,0.0312,0.0277,0.0292,0.0302,0.0337,0.0346,0.0232,0.0231,0.023,0.0229,0,0,0.0418,0.0446,0.0452,0.0466,0.0462,0.046,0.0451,0.0439,0.0442,0.0406,0.0416,0.038,0.0379,0.0369,0.035,0.036,0.0411,0.0353,0.0352,0.0415,0.0467,0.0448,0.0455,0.039,0.0391,0.0392,0.0482,0,0.0437,0.047,0.0477,0.0502,0.0515,0.05,0.0501,0.0485,0.0466,0.0466,0.0436,0.044,0.0405,0.042,0.0421,0.0409,0.0435,0.0392,0.0425,0.0427,0.0429,0.0464,0.0396,0.0489,0.0491,0.0492,0.0493,0,0.0454,0.0475,0.0508,0.0538,0.0544,0.0553,0.0557,0.0556,0.0549,0.0542,0.0547,0.0532,0.055,0.0509,0.0527,0.0511,0.0509,0.0494,0.0496,0.0471,0.0423,0.0468,0.0508,0.0507,0.0506,0.0505,0.0504,0,0.0453,0.0496,0.0523,0.0533,0.0559,0.0571,0.0581,0.058,0.0595,0.061,0.0637,0.0633,0.0657,0.064,0.0616,0.0591,0.0634,0.0582,0.0567,0.0566,0.0535,0.0528,0.0608,0.0608,0.0608,0.0608,0.0607,0,0.0454,0.0482,0.053,0.0544,0.0577,0.0595,0.0629,0.0633,0.0668,0.0693,0.0696,0.0701,0.0696,0.0706,0.0665,0.0656,0.0676,0.0603,0.0591,0.0553,0.0547,0.0543,0.0534,0.0611,0.061,0.061,0.0609,0,0.043,0.0468,0.0509,0.0558,0.0578,0.0599,0.0663,0.0684,0.0732,0.077,0.0793,0.0797,0.0798,0.0794,0.0775,0.0736,0.0708,0.0698,0.0702,0.0683,0.063,0.0622,0.0705,0.0705,0.0705,0.0705,0.0705,0,0.0413,0.0434,0.0512,0.054,0.0563,0.061,0.0637,0.0697,0.0721,0.079,0.0795,0.0844,0.0831,0.0804,0.0777,0.0759,0.0726,0.0751,0.0658,0.0662,0.0642,0.0634,0.0626,0.0706,0.0706,0.0706,0.0706,0,0.0379,0.042,0.0449,0.0516,0.0558,0.06,0.0647,0.066,0.0724,0.0806,0.0795,0.0795,0.0806,0.0763,0.0795,0.0744,0.0752,0.0752,0.075,0.0662,0.0663,0.0641,0.0634,0.0706,0.0706,0.0706,0.0706,0,0.0354,0.0365,0.0427,0.047,0.0539,0.0558,0.058,0.0612,0.0656,0.0742,0.0718,0.0736,0.0778,0.0754,0.0735,0.0746,0.0713,0.069,0.069,0.069,0.0638,0.0634,0.0683,0,0,0,0,0,0.0324,0.0335,0.0376,0.0423,0.0494,0.053,0.0579,0.0599,0.0664,0.0656,0.07,0.0691,0.0693,0.0671,0.0673,0.0705,0.0704,0.0706,0.0674,0.0708,0.0708,0.0645,0,0,0,0,0,0,0.0309,0.0343,0.0356,0.0391,0.0412,0.0471,0.0491,0.052,0.0515,0.0587,0.057,0.0677,0.0657,0.0693,0.0665,0.0674,0.0647,0.0743,0.0742,0.0709,0.0708,0.0708,0.0643,0,0,0,0,0]},{"header":{"parameterUnit":"m.s-1","parameterCategory":2,"la1":30.2991,"la2":30.254,"lo1":-89.0895,"lo2":-89.0444,"dy":0.0017,"dx":0.0017,"nx":28,"ny":28,"refTime":"2024-02-27T03:00:00:Z","depth":"4","parameterNumber":3,"parameterNumberName":"V-component_of_CURRENTS"},"data":[0,0,0,0,0,0,0,0,0,0,0,0,0,0,0,0,0,0,0,0,0,0,0,0,0,0,0,0,0,0,0,0,0,0,0,0,0,0,0,0,0,0,0,0,0,0,0,0,0,0,0,0,0,0,0,0,0,0,-0.0106,-0.0106,0,-0.0157,-0.0158,-0.0159,-0.0128,-0.0126,-0.0125,-0.0123,-0.0158,-0.016,-0.0163,0,0,0,0,0,0,0,0,0,0,0,0,0,-0.0052,-0.0053,-0.0106,-0.0106,-0.0107,-0.0157,-0.0158,-0.0159,-0.0128,-0.0126,-0.0124,-0.0122,-0.0157,-0.016,-0.0163,0,0,0,0,0,0,0,0,0,0,0,0,0,-0.0089,-0.0053,-0.0106,-0.0095,-0.0095,-0.0157,-0.0158,-0.016,-0.0129,-0.0126,-0.0124,-0.0121,-0.0156,-0.0159,-0.0163,-0.0239,0,0,-0.0175,-0.0177,0,0,0,0,0,0,0,0,-0.0087,-0.0091,-0.0097,-0.0096,-0.0096,-0.0131,-0.0152,-0.0184,-0.0129,-0.0119,-0.0123,-0.012,-0.0147,-0.0152,-0.0171,-0.024,-0.0242,-0.0175,-0.0177,-0.0179,-0.018,0,0,0,0,0,0,0,-0.0084,-0.0089,-0.0129,-0.0097,-0.0097,-0.0112,-0.0114,-0.0158,-0.0149,-0.012,-0.0117,-0.0119,-0.0147,-0.0168,-0.0172,-0.0242,-0.0175,-0.0178,-0.0181,-0.0182,-0.0289,-0.0289,0,0,0,0,0,0,-0.0072,-0.0087,-0.0127,-0.013,-0.0082,-0.0115,-0.0117,-0.0125,-0.0149,-0.0149,-0.0121,-0.0117,-0.0163,-0.0167,-0.0173,-0.0178,-0.0179,-0.0183,-0.0185,-0.0288,-0.0289,-0.0289,0,0,0,0,0,0,-0.0071,-0.0075,-0.0125,-0.0107,-0.0114,-0.0118,-0.0127,-0.0127,-0.0137,-0.015,-0.015,-0.0129,-0.0161,-0.0167,-0.0201,-0.0182,-0.0184,-0.0188,-0.0287,-0.0288,-0.0289,-0.0243,0,0,0,0,0,0,-0.0069,-0.0075,-0.0088,-0.0106,-0.0114,-0.0157,-0.0129,-0.013,-0.0142,-0.0137,-0.0157,-0.0158,-0.0159,-0.0195,-0.0205,-0.0187,-0.0191,-0.0287,-0.0288,-0.0289,-0.0244,-0.0242,-0.0241,0,0,0,0,0,-0.0067,-0.0085,-0.0089,-0.0094,-0.0129,-0.0158,-0.0165,-0.016,-0.0144,-0.0158,-0.0164,-0.0157,-0.0207,-0.02,-0.0211,-0.0193,-0.0286,-0.0288,-0.0289,-0.0245,-0.0243,-0.0241,0,0,0,0,0,0,-0.0071,-0.0085,-0.0088,-0.0111,-0.0132,-0.0151,-0.0168,-0.0167,-0.0187,-0.0179,-0.0183,-0.0186,-0.0205,-0.0221,-0.0213,-0.0228,-0.0239,-0.0243,-0.0202,-0.0201,-0.0199,-0.02,-0.0194,0,0,0,0,0,-0.0081,-0.0098,-0.0114,-0.0137,-0.0146,-0.0162,-0.0177,-0.0173,-0.0188,-0.0193,-0.0201,-0.0212,-0.0226,-0.0228,-0.0255,-0.0279,-0.03,-0.0271,-0.027,-0.0268,-0.0278,-0.0294,-0.0294,-0.0293,-0.0293,-0.0293,0,0,-0.0089,-0.0101,-0.0111,-0.014,-0.0158,-0.0172,-0.0165,-0.0185,-0.0192,-0.0198,-0.0214,-0.0221,-0.0237,-0.0248,-0.0256,-0.0252,-0.0281,-0.027,-0.0268,-0.0279,-0.0295,-0.0295,-0.0295,-0.0294,-0.0294,-0.0294,0,0,-0.0103,-0.0128,-0.0137,-0.0155,-0.0176,-0.0189,-0.0193,-0.021,-0.0212,-0.0236,-0.0229,-0.0232,-0.0261,-0.0257,-0.026,-0.0279,-0.0282,-0.0271,-0.0252,-0.0267,-0.0267,-0.0267,-0.0293,-0.0296,-0.0257,-0.0257,-0.0257,0,-0.011,-0.0125,-0.0148,-0.0159,-0.0172,-0.0192,-0.0201,-0.0221,-0.0243,-0.0248,-0.0232,-0.0257,-0.0264,-0.0271,-0.0255,-0.0273,-0.0283,-0.025,-0.0263,-0.0263,-0.0264,-0.0291,-0.0295,-0.0255,-0.0255,-0.0256,-0.0256,0,-0.0121,-0.0136,-0.0147,-0.0164,-0.0188,-0.0205,-0.0225,-0.0242,-0.0241,-0.0249,-0.026,-0.0267,-0.0267,-0.0262,-0.0258,-0.0258,-0.0265,-0.0265,-0.0261,-0.0261,-0.029,-0.0295,-0.0252,-0.0253,-0.0254,-0.0254,0,0,-0.0117,-0.0145,-0.0148,-0.0153,-0.0188,-0.0204,-0.0229,-0.0252,-0.0254,-0.0267,-0.0266,-0.0271,-0.0257,-0.0261,-0.0251,-0.0254,-0.0258,-0.0246,-0.0248,-0.0262,-0.0292,-0.0267,-0.027,-0.0245,-0.0245,-0.0246,-0.0309,0,-0.0114,-0.0124,-0.0145,-0.0162,-0.017,-0.02,-0.022,-0.0245,-0.0257,-0.0266,-0.0274,-0.0266,-0.0261,-0.0231,-0.0241,-0.0257,-0.0268,-0.0241,-0.0301,-0.0303,-0.0271,-0.0274,-0.0248,-0.0312,-0.0313,-0.0314,-0.0315,0,-0.011,-0.0118,-0.0126,-0.0149,-0.0155,-0.0166,-0.0194,-0.0209,-0.0239,-0.024,-0.024,-0.0245,-0.0249,-0.0236,-0.0277,-0.0253,-0.0269,-0.0288,-0.0291,-0.0289,-0.0286,-0.0315,-0.0324,-0.0323,-0.0322,-0.0322,-0.0321,0,-0.0087,-0.0104,-0.0109,-0.0118,-0.0148,-0.0152,-0.0162,-0.0193,-0.0194,-0.0205,-0.0193,-0.0224,-0.021,-0.0249,-0.0276,-0.0266,-0.0333,-0.0329,-0.0336,-0.0336,-0.0359,-0.0358,-0.0367,-0.0367,-0.0367,-0.0367,-0.0367,0,-0.0071,-0.0078,-0.009,-0.0093,-0.009,-0.0117,-0.0112,-0.0126,-0.0135,-0.0128,-0.0156,-0.0155,-0.0205,-0.0246,-0.0285,-0.0325,-0.0341,-0.0343,-0.0348,-0.0339,-0.0336,-0.0362,-0.0361,-0.0369,-0.0369,-0.0368,-0.0368,0,-0.005,-0.0062,-0.0066,-0.008,-0.0078,-0.007,-0.0064,-0.0061,-0.0064,-0.0053,-0.0043,-0.0097,-0.0144,-0.0215,-0.0286,-0.0318,-0.0372,-0.0383,-0.0381,-0.0385,-0.0368,-0.0363,-0.0403,-0.0403,-0.0403,-0.0402,-0.0402,0,-0.0043,-0.0042,-0.0045,-0.0034,-0.0034,-0.0019,-0.0013,-0.0018,-0.001,-0.0018,-0.0014,-0.0053,-0.0092,-0.0195,-0.0273,-0.0367,-0.0369,-0.0403,-0.0376,-0.0369,-0.0371,-0.0367,-0.0363,-0.0402,-0.0402,-0.0401,-0.0401,0,-0.0032,-0.0034,-0.0033,0.0001,0.0016,0.0027,0.0045,0.0056,0.0052,0.0053,0.0033,-0.0016,-0.0083,-0.0181,-0.0249,-0.0318,-0.0385,-0.0399,-0.04,-0.0376,-0.0368,-0.0368,-0.0365,-0.04,-0.04,-0.0401,-0.0401,0,-0.0024,-0.0017,-0.0003,0.0027,0.0057,0.0072,0.0068,0.0076,0.0081,0.0079,0.0066,-0.0005,-0.0053,-0.0156,-0.0229,-0.0285,-0.0294,-0.0305,-0.0311,-0.0313,-0.0261,-0.0236,-0.0237,0,0,0,0,0,-0.0014,-0.0002,0.0024,0.0047,0.0083,0.0095,0.0105,0.0094,0.0095,0.0098,0.0091,0.0035,-0.006,-0.013,-0.0179,-0.0232,-0.0316,-0.0293,-0.0335,-0.0394,-0.0395,-0.0346,0,0,0,0,0,0,-0.0011,0.0011,0.0023,0.0072,0.0096,0.0117,0.0122,0.0108,0.0104,0.0103,0.0042,0.0037,-0.0076,-0.002,-0.0173,-0.0195,-0.0225,-0.0339,-0.034,-0.0393,-0.0394,-0.0395,-0.0345,0,0,0,0,0]}]]